Location: Bear Trap Landing
(45.2437°N, 67.7928°W)
Time: 16:50:48
(UTC+00:00)

Envisat - Pass Details

Date: 07 March 2021
Orbit: 764 x 766 km, 98.1° (Epoch: 21 April)

Event Time Altitude Azimuth Distance (km) Brightness Sun altitude
Rises 09:10:49 0° 26° (NNE) 3,243 6.8 -19.6°
Reaches altitude 10° 09:13:38 10° 41° (NE) 2,311 6.2 -19.1°
Maximum altitude 09:17:36 23° 92° (E) 1,602 5.5 -18.4°
Drops below altitude 10° 09:21:33 10° 144° (SE) 2,296 5.8 -17.8°
Sets 09:24:18 0° 159° (SSE) 3,217 6.4 -17.3°
